Regional Weather Roundup
Issued by NWS

Home | Current Version | Previous Version | Text Only | Print | Product List | Glossary On
Versions: 1 2 3 4 5 6 7 8 9 10 11 12 13 14 15 16 17 18 19 20 21 22 23 24 25 26 27 28 29 30 31 32 33 34 35 36 37 38 39 40 41 42 43 44 45 46 47 48 49 50
000
ASUS44 KOUN 220310
RWROK

WEATHER ROUNDUP FOR OKLAHOMA
NATIONAL WEATHER SERVICE NORMAN OK
1000 PM CDT THU AUG 21 2014

NOTE: "FAIR" INDICATES FEW OR NO CLOUDS BELOW 12,000 FEET WITH NO
      SIGNIFICANT WEATHER AND/OR OBSTRUCTIONS TO VISIBILITY.

OKZ001>007-009>012-014-015-017-220400-
NORTHWEST OKLAHOMA AND THE PANHANDLE

CITY           SKY/WX    TMP DP  RH WIND       PRES   REMARKS
GAGE           CLEAR     88  63  43 S13       29.90S
ENID/WOODRING  CLEAR     86  72  62 SE14      29.90R HX  92
$$

OKZ016-021>023-033>039-044-045-220400-
SOUTHWEST OKLAHOMA

CITY           SKY/WX    TMP DP  RH WIND       PRES   REMARKS
LAWTON/REGL    CLEAR     91  66  43 SE13      29.92R HX  93
LAWTON/FT SILL CLEAR     89  68  50 SE13      29.92R HX  93
FREDERICK      CLEAR     91  64  40 SE16      29.89R HX  92
CLINTON        CLEAR     90  65  43 SE17      29.94S HX  92
HOBART         CLEAR     90  65  43 S16       29.92R HX  92
ALTUS AFB      CLEAR     89  67  47 SE13      29.91R HX  92
$$

OKZ018>020-024>031-220400-
CENTRAL OKLAHOMA

CITY           SKY/WX    TMP DP  RH WIND       PRES   REMARKS
OKLAHOMA CITY  CLEAR     86  70  58 SE14      29.95R HX  90
OKC/WILEY POST CLEAR     88  71  57 S18       29.94R HX  94
OKC/TINKER AFB CLEAR     85  71  62 S14       29.96R HX  91
STILLWATER     CLEAR     87  70  56 S17       29.93R HX  92
GUTHRIE        CLEAR     86  71  60 S12       29.93R HX  91
$$

OKZ008-013-054>072-220400-
NORTHEAST OKLAHOMA

CITY           SKY/WX    TMP DP  RH WIND       PRES   REMARKS
TULSA          CLEAR     87  72  60 S12       29.94R HX  93
TULSA/JONES    CLEAR     86  71  60 S7        29.95R HX  91
PONCA CITY     CLEAR     88  71  57 S12G29    29.92R HX  94
BARTLESVILLE   CLEAR     83  72  69 SE6       29.96R
MUSKOGEE       CLEAR     81  72  74 S7        29.99R
$$

OKZ032-040>043-046>053-073>077-220400-
SOUTH CENTRAL/SOUTHEAST OKLAHOMA

CITY           SKY/WX    TMP DP  RH WIND       PRES   REMARKS
ARDMORE/DWNTWN CLEAR     84  64  51 S5        29.96R
MCALESTER      CLEAR     85  70  60 SE7       29.99R
$$



USA.gov is the U.S. government's official web portal to all federal, state and local government web resources and services.